This is the latest recevied weather packets stored in our database for station/object KC9DNQ-3. If no packets are shown the sender has not sent any weather packets the latest 10 day(s).
| Time | Temp. | Humidity | Pressure | Rain* | Wind** | Luminosity | Snow |
|---|---|---|---|---|---|---|---|
| 1778129109 | 3.89° C | 79% | 1015.1 hPa | 0 mm | - | 0 W/m² | - |
| 1778128809 | 3.89° C | 78% | 1015.1 hPa | 0 mm | - | 0 W/m² | - |
| 1778128510 | 3.89° C | 77% | 1015.1 hPa | 0 mm | - | 0 W/m² | - |
| 1778128209 | 3.89° C | 77% | 1015 hPa | 0 mm | - | 0 W/m² | - |
| 1778127909 | 4.44° C | 76% | 1015 hPa | 0 mm | - | 0 W/m² | - |
| 1778127609 | 4.44° C | 76% | 1015.1 hPa | 0 mm | - | 0 W/m² | - |
| 1778127309 | 4.44° C | 76% | 1015.1 hPa | 0 mm | - | 0 W/m² | - |
| 1778127012 | 5° C | 76% | 1015.1 hPa | 0 mm | - | 0 W/m² | - |
| 1778126709 | 5° C | 75% | 1015.1 hPa | 0 mm | - | 0 W/m² | - |
| 1778126409 | 5° C | 76% | 1015.1 hPa | 0 mm | - | 0 W/m² | - |
| 1778126110 | 5° C | 74% | 1015.1 hPa | 0 mm | - | 0 W/m² | - |
| 1778125809 | 5.56° C | 72% | 1015.1 hPa | 0 mm | - | 0 W/m² | - |
| 1778125509 | 5.56° C | 71% | 1015.2 hPa | 0 mm | - | 0 W/m² | - |
| 1778125209 | 5.56° C | 69% | 1015.2 hPa | 0 mm | - | 0 W/m² | - |
| 1778124911 | 5.56° C | 68% | 1015.2 hPa | 0 mm | - | 0 W/m² | - |
| 1778124609 | 6.11° C | 68% | 1015.2 hPa | 0 mm | - | 0 W/m² | - |
| 1778124310 | 6.11° C | 67% | 1015.2 hPa | 0 mm | - | 0 W/m² | - |
| 1778124010 | 6.67° C | 64% | 1015.2 hPa | 0 mm | - | 0 W/m² | - |
| 1778123709 | 6.67° C | 64% | 1015.2 hPa | 0 mm | - | 0 W/m² | - |
| 1778123410 | 7.22° C | 62% | 1015.2 hPa | 0 mm | - | 0 W/m² | - |
| 1778123109 | 7.22° C | 63% | 1015 hPa | 0 mm | - | 0 W/m² | - |
| 1778122810 | 7.22° C | 57% | 1015 hPa | 0 mm | - | 0 W/m² | - |
| 1778122510 | 7.78° C | 57% | 1015.1 hPa | 0 mm | - | 0 W/m² | - |
| 1778122210 | 7.78° C | 55% | 1015 hPa | 0 mm | - | 0 W/m² | - |
| 1778121909 | 7.78° C | 56% | 1015 hPa | 0 mm | - | 0 W/m² | - |
* Rain latest hour (hover to see other rain measurements)
** Current wind speed in m/s (hover to see current wind gust speed)